#timestamp,LO_Frequency,Hit,StdDev 
1663214415.3,286046998.3,N
1663214435.1,286047001.2,N
1663214455.9,286046998.5,N
1663214475.7,286046998.8,N
1663214495.6,286046999.0,N
1663214515.4,286046998.6,N
1663214535.2,286046998.6,N
1663214555.1,286047000.1,N
1663214556.0,286047000.1,N
1663214575.8,286046999.8,N
1663214595.6,286047000.9,N
1663214615.5,286047000.6,N
1663214635.3,286046999.9,N
1663214655.2,286046999.9,N
1663214675.9,286046998.4,N
1663214695.7,286046999.4,N
1663214715.6,286046998.9,N
1663214735.4,286046998.7,N
1663214755.2,286046998.9,N
1663214775.1,286046999.0,N
1663214776.0,286046999.0,N
1663214795.8,286046999.6,N
1663214815.7,286046999.2,N
1663214835.5,286046996.5,Y
1663214855.3,286046999.1,P
1663214875.2,286046997.2,P
1663214895.0,286046997.3,N
1663214895.9,286046997.3,N
1663214915.8,286046997.2,Y
1663214935.6,286046998.3,P
1663214955.4,286046998.4,P
1663214975.3,286046998.2,P
1663214995.1,286047001.0,Y
1663215015.8,286047002.6,P
1663215035.7,286047001.8,N
1663215055.5,286047002.4,N
1663215075.4,286046999.7,N
1663215095.2,286046999.8,N
1663215115.0,286047002.1,N
1663215115.9,286047002.1,N
1663215135.8,286047001.8,N
1663215155.6,286047002.6,N
1663215175.4,286047002.2,N
1663215195.3,286046999.8,N
1663215215.1,286047000.3,N
1663215235.9,286047000.6,N
1663215255.7,286046999.9,N
1663215275.5,286047002.8,N
1663215295.4,286047002.4,N
1663215315.2,286047002.1,N
1663215335.0,286047002.0,N
1663215335.9,286047002.0,N
1663215355.8,286047002.8,N
1663215375.6,286047002.0,N
1663215395.5,286047002.2,N
1663215415.3,286047002.3,N
1663215435.1,286047000.2,N
1663215455.9,286047001.6,N
1663215475.7,286047001.8,N
1663215495.5,286047001.9,N
1663215515.4,286047001.5,N
1663215535.2,286047004.0,Y
1663215555.1,286047002.4,P
1663215556.0,286047002.4,P
1663215575.8,286047001.4,P
1663215595.6,286047002.1,Y
1663215615.5,286046999.9,P
1663215635.3,286047000.0,N
1663215655.2,286047000.1,N
1663215675.9,286047000.6,N
1663215695.7,286047000.1,N
1663215715.6,286047000.3,N
1663215735.4,286047002.3,Y
1663215755.2,286047002.4,P
1663215775.1,286047002.8,N
1663215776.0,286047002.8,N
1663215795.8,286047002.2,N
1663215815.7,286047001.9,N
1663215835.5,286047002.4,N
1663215855.3,286047000.0,N
1663215875.2,286047000.2,N
1663215895.0,286047002.6,N
1663215895.9,286047002.6,N
1663215915.8,286047002.6,N
1663215935.6,286047002.1,N
1663215955.4,286047004.2,Y
1663215975.3,286047002.8,P
1663215995.1,286047002.8,P
1663216015.9,286047002.1,P
1663216035.7,286047002.0,Y
1663216055.5,286047000.9,P
1663216075.4,286047001.2,N
1663216095.2,286047011.9,P
1663216115.0,286046998.9,N
1663216115.9,286046998.9,N
1663216135.8,286046998.1,N
1663216155.6,286046996.7,N
1663216175.5,286046995.3,N
1663216195.3,286046998.0,N
1663216215.2,286046997.4,N
1663216235.9,286046998.4,N
1663216255.7,286046998.8,N
1663216275.4,286047001.1,N
1663216295.2,286046998.3,N
1663216315.0,286046999.4,N
1663216315.9,286046999.4,N
1663216335.8,286046997.0,N
1663216355.6,286046997.3,N
1663216375.5,286046997.3,N
1663216395.3,286046998.0,N
1663216415.1,286046997.6,N
1663216435.9,286046999.2,N
1663216455.7,286046999.4,N
1663216475.6,286046999.4,N
1663216495.4,286046998.8,N
1663216515.2,286046998.9,N
1663216535.1,286046999.1,N
1663216536.0,286046999.1,N
1663216555.8,286047000.3,N
1663216575.6,286046999.8,N
1663216595.5,286047000.5,N
1663216615.3,286047001.0,N
1663216635.2,286047000.6,N
1663216655.9,286047000.6,N
1663216675.7,286047000.1,N
1663216695.6,286047001.0,N
1663216715.4,286047001.1,N
1663216735.2,286047000.9,N
1663216755.1,286047000.2,N
1663216756.0,286047000.2,N
1663216775.8,286047000.9,N
1663216795.7,286047002.8,N
1663216815.5,286047000.6,N
1663216835.3,286047000.6,N
1663216855.2,286047001.0,N
1663216875.0,286046999.8,N
1663216875.9,286046999.8,N
1663216895.8,286046999.7,N
1663216915.6,286047002.2,N
1663216935.4,286047002.1,N
1663216955.3,286047001.5,N
1663216975.1,286047003.7,Y
1663216995.8,286047003.7,P
1663217015.7,286047001.7,N
1663217035.5,286047001.9,N
1663217055.4,286047000.5,N
1663217075.2,286046998.5,N
1663217095.0,286047000.6,N
1663217095.9,286047000.6,N
1663217115.8,286046998.3,N
1663217135.6,286047002.1,N
1663217155.5,286047002.2,N
1663217175.3,286047002.0,N
1663217195.1,286047002.3,N
1663217215.9,286047001.7,N
1663217235.7,286046998.6,N
1663217255.5,286047000.7,N
1663217275.4,286046999.9,N
1663217295.2,286046999.9,N
1663217315.1,286047001.4,N
1663217316.0,286047001.4,N
1663217335.8,286047001.5,N
1663217355.6,286047001.9,N
1663217375.5,286047004.0,N
1663217395.3,286047004.3,N
1663217415.9,286047004.3,N
1663217435.7,286047001.6,N
1663217455.5,286047002.8,N
1663217475.4,286047000.9,N
1663217495.2,286046998.9,N
1663217515.1,286047000.9,N
1663217516.0,286047000.9,N
1663217535.8,286047000.5,N
1663217555.6,286047000.1,N
1663217575.5,286046998.8,N
1663217595.3,286047000.4,N
1663217615.1,286047002.8,N
1663217635.9,286047001.5,N
1663217655.7,286046999.8,N
1663217675.6,286046998.8,N
1663217695.4,286046998.2,N
1663217715.2,286047000.1,N
1663217735.1,286047001.8,N
1663217736.0,286047001.8,N
1663217755.8,286047002.4,N
1663217775.6,286047000.4,N
1663217795.5,286047002.8,N
1663217815.3,286047001.9,N
1663217835.2,286047004.2,N
1663217855.0,286047001.7,N
1663217855.9,286047001.7,N
1663217875.8,286047001.7,N
1663217895.6,286047004.1,N
1663217915.4,286047003.9,N
1663217935.3,286047004.3,N
1663217955.1,286047003.8,N
1663217975.8,286047003.7,N
1663217995.7,286047005.9,Y
